******** Week 358 almanac for PRN-1 ******** ID: 1 Health: 0 Eccentricity: 0.001523017883 Time of Applicability(s): 233472 Orbital Inclination(rad): 0.9584347915 Rate of Right Ascen(r/s): -7.737465153e-09 SQRT(A) (m 1/2): 5153.583496 Right Ascen at Week(rad): -2.895808561 Argument of Perigee(rad): 0.05041351462 Mean Anom(rad): 0.1568918549 Af0(s): 0.0002615249878 Af1(s/s): -7.275958e-12 week: 358 ******** Week 358 almanac for PRN-2 ******** ID: 2 Health: 0 Eccentricity: 0.01694154739 Time of Applicability(s): 233472 Orbital Inclination(rad): 0.9637737637 Rate of Right Ascen(r/s): -7.623174678e-09 SQRT(A) (m 1/2): 5153.556152 Right Ascen at Week(rad): -3.058308284 Argument of Perigee(rad): -0.822470989 Mean Anom(rad): 1.59207694 Af0(s): 3.165432129e-05 Af1(s/s): 7.275958e-12 week: 358 ******** Week 358 almanac for PRN-3 ******** ID: 3 Health: 0 Eccentricity: 0.006437301636 Time of Applicability(s): 233472 Orbital Inclination(rad): 0.9929253908 Rate of Right Ascen(r/s): -7.886042771e-09 SQRT(A) (m 1/2): 5153.585449 Right Ascen at Week(rad): -1.909293756 Argument of Perigee(rad): 1.204430333 Mean Anom(rad): -2.011018479 Af0(s): 0.0004476825439 Af1(s/s): -1.091394e-11 week: 358 ******** Week 358 almanac for PRN-4 ******** ID: 4 Health: 0 Eccentricity: 0.003737449646 Time of Applicability(s): 233472 Orbital Inclination(rad): 0.9704849297 Rate of Right Ascen(r/s): -8.080336578e-09 SQRT(A) (m 1/2): 5153.687988 Right Ascen at Week(rad): -0.8381171436 Argument of Perigee(rad): -2.886476969 Mean Anom(rad): 0.9907628378 Af0(s): 3.542269287e-05 Af1(s/s): 3.637979e-12 week: 358 ******** Week 358 almanac for PRN-5 ******** ID: 5 Health: 0 Eccentricity: 0.005384922028 Time of Applicability(s): 233472 Orbital Inclination(rad): 0.979509051 Rate of Right Ascen(r/s): -7.988904198e-09 SQRT(A) (m 1/2): 5153.646973 Right Ascen at Week(rad): -1.968884191 Argument of Perigee(rad): 1.419605219 Mean Anom(rad): 1.641493517 Af0(s): -0.0001808818359 Af1(s/s): 0 week: 358 ******** Week 358 almanac for PRN-6 ******** ID: 6 Health: 0 Eccentricity: 0.003872871399 Time of Applicability(s): 233472 Orbital Inclination(rad): 0.9873467341 Rate of Right Ascen(r/s): -7.406022776e-09 SQRT(A) (m 1/2): 5153.590332 Right Ascen at Week(rad): -2.945630354 Argument of Perigee(rad): -0.5846174556 Mean Anom(rad): -0.6704657018 Af0(s): -0.0004823515625 Af1(s/s): 0 week: 358 ******** Week 358 almanac for PRN-7 ******** ID: 7 Health: 0 Eccentricity: 0.02039003372 Time of Applicability(s): 233472 Orbital Inclination(rad): 0.9513760831 Rate of Right Ascen(r/s): -7.714607058e-09 SQRT(A) (m 1/2): 5153.586426 Right Ascen at Week(rad): 0.1703801001 Argument of Perigee(rad): -1.996393979 Mean Anom(rad): -1.550527258 Af0(s): -0.0001183268677 Af1(s/s): -3.637979e-12 week: 358 ******** Week 358 almanac for PRN-8 ******** ID: 8 Health: 0 Eccentricity: 0.01154470444 Time of Applicability(s): 233472 Orbital Inclination(rad): 0.9435084394 Rate of Right Ascen(r/s): -8.240343243e-09 SQRT(A) (m 1/2): 5153.617188 Right Ascen at Week(rad): 2.218221233 Argument of Perigee(rad): 0.5178327408 Mean Anom(rad): 1.284152767 Af0(s): 0.0003873885986 Af1(s/s): -3.637979e-12 week: 358 ******** Week 358 almanac for PRN-9 ******** ID: 9 Health: 0 Eccentricity: 0.003377437592 Time of Applicability(s): 233472 Orbital Inclination(rad): 0.9645946831 Rate of Right Ascen(r/s): -8.194627053e-09 SQRT(A) (m 1/2): 5153.732422 Right Ascen at Week(rad): -0.9022780622 Argument of Perigee(rad): 2.07388173 Mean Anom(rad): 1.876006448 Af0(s): 0.0006082151733 Af1(s/s): 0 week: 358 ******** Week 358 almanac for PRN-10 ******** ID: 10 Health: 0 Eccentricity: 0.01094722748 Time of Applicability(s): 233472 Orbital Inclination(rad): 0.992458006 Rate of Right Ascen(r/s): -7.908900866e-09 SQRT(A) (m 1/2): 5153.601074 Right Ascen at Week(rad): -1.911802953 Argument of Perigee(rad): -2.2576748 Mean Anom(rad): -2.995371629 Af0(s): -0.0004650170532 Af1(s/s): 0 week: 358 ******** Week 358 almanac for PRN-11 ******** ID: 11 Health: 0 Eccentricity: 0.002220630646 Time of Applicability(s): 233472 Orbital Inclination(rad): 0.9641992037 Rate of Right Ascen(r/s): -7.646032773e-09 SQRT(A) (m 1/2): 5153.525391 Right Ascen at Week(rad): -2.926554839 Argument of Perigee(rad): -2.292878835 Mean Anom(rad): 0.379546395 Af0(s): -0.0003444291626 Af1(s/s): 1.455192e-11 week: 358 ******** Week 358 almanac for PRN-12 ******** ID: 12 Health: 0 Eccentricity: 0.009055137634 Time of Applicability(s): 233472 Orbital Inclination(rad): 0.9588482473 Rate of Right Ascen(r/s): -8.057478483e-09 SQRT(A) (m 1/2): 5153.72168 Right Ascen at Week(rad): 1.288024421 Argument of Perigee(rad): 1.556093931 Mean Anom(rad): -2.195198039 Af0(s): -0.0004800905395 Af1(s/s): 0 week: 358 ******** Week 358 almanac for PRN-13 ******** ID: 13 Health: 0 Eccentricity: 0.009961128235 Time of Applicability(s): 233472 Orbital Inclination(rad): 0.9762073971 Rate of Right Ascen(r/s): -7.977475151e-09 SQRT(A) (m 1/2): 5153.624512 Right Ascen at Week(rad): -0.7273375901 Argument of Perigee(rad): 0.9984975315 Mean Anom(rad): 1.028224776 Af0(s): 0.0005426455078 Af1(s/s): 0 week: 358 ******** Week 358 almanac for PRN-14 ******** ID: 14 Health: 0 Eccentricity: 0.006652355194 Time of Applicability(s): 233472 Orbital Inclination(rad): 0.9422321195 Rate of Right Ascen(r/s): -8.263201338e-09 SQRT(A) (m 1/2): 5153.587891 Right Ascen at Week(rad): 1.233573346 Argument of Perigee(rad): -2.756361243 Mean Anom(rad): -2.364142279 Af0(s): 0.0005810828979 Af1(s/s): 3.637979e-12 week: 358 ******** Week 358 almanac for PRN-15 ******** ID: 15 Health: 0 Eccentricity: 0.01660394669 Time of Applicability(s): 233472 Orbital Inclination(rad): 0.9423759302 Rate of Right Ascen(r/s): -8.491782288e-09 SQRT(A) (m 1/2): 5153.629883 Right Ascen at Week(rad): -1.046029964 Argument of Perigee(rad): 1.499536254 Mean Anom(rad): 0.2838325102 Af0(s): 0.0003059917725 Af1(s/s): 3.637979e-12 week: 358 ******** Week 358 almanac for PRN-16 ******** ID: 16 Health: 0 Eccentricity: 0.01505565643 Time of Applicability(s): 233472 Orbital Inclination(rad): 0.957979391 Rate of Right Ascen(r/s): -8.103194673e-09 SQRT(A) (m 1/2): 5153.580566 Right Ascen at Week(rad): 1.305030785 Argument of Perigee(rad): 0.9284246449 Mean Anom(rad): 2.302444868 Af0(s): 0.0001658083496 Af1(s/s): 7.275958e-12 week: 358 ******** Week 358 almanac for PRN-17 ******** ID: 17 Health: 0 Eccentricity: 0.01269960403 Time of Applicability(s): 233472 Orbital Inclination(rad): 0.9592736873 Rate of Right Ascen(r/s): -8.080336578e-09 SQRT(A) (m 1/2): 5153.524902 Right Ascen at Week(rad): 2.322724424 Argument of Perigee(rad): -1.125171163 Mean Anom(rad): 1.201635761 Af0(s): -5.124985352e-05 Af1(s/s): -1.091394e-11 week: 358 ******** Week 358 almanac for PRN-18 ******** ID: 18 Health: 0 Eccentricity: 0.005728244781 Time of Applicability(s): 233472 Orbital Inclination(rad): 0.9723065319 Rate of Right Ascen(r/s): -7.566029441e-09 SQRT(A) (m 1/2): 5153.600098 Right Ascen at Week(rad): -2.950474977 Argument of Perigee(rad): -2.861268526 Mean Anom(rad): -0.7835020346 Af0(s): -0.0003338777222 Af1(s/s): 1.091394e-11 week: 358 ******** Week 358 almanac for PRN-19 ******** ID: 19 Health: 0 Eccentricity: 0.01107406616 Time of Applicability(s): 233472 Orbital Inclination(rad): 0.9584887206 Rate of Right Ascen(r/s): -8.057478483e-09 SQRT(A) (m 1/2): 5153.657715 Right Ascen at Week(rad): 2.36662601 Argument of Perigee(rad): 2.926452598 Mean Anom(rad): 3.031928383 Af0(s): 0.0005456602051 Af1(s/s): 0 week: 358 ******** Week 358 almanac for PRN-20 ******** ID: 20 Health: 255 Eccentricity: 0.0003008842468 Time of Applicability(s): 233472 Orbital Inclination(rad): 0.9600227013 Rate of Right Ascen(r/s): -8.240343243e-09 SQRT(A) (m 1/2): 5153.63916 Right Ascen at Week(rad): -0.8966020337 Argument of Perigee(rad): 1.373828475 Mean Anom(rad): 0.6766023739 Af0(s): 0 Af1(s/s): 0 week: 358 ******** Week 358 almanac for PRN-21 ******** ID: 21 Health: 0 Eccentricity: 0.0006866455078 Time of Applicability(s): 233472 Orbital Inclination(rad): 0.9623416489 Rate of Right Ascen(r/s): -8.217485148e-09 SQRT(A) (m 1/2): 5153.702148 Right Ascen at Week(rad): -1.902645507 Argument of Perigee(rad): -0.379596579 Mean Anom(rad): -2.441020708 Af0(s): 0.0003157895386 Af1(s/s): 3.637979e-12 week: 358 ******** Week 358 almanac for PRN-22 ******** ID: 22 Health: 0 Eccentricity: 0.01212358475 Time of Applicability(s): 233472 Orbital Inclination(rad): 0.9574221245 Rate of Right Ascen(r/s): -8.148910863e-09 SQRT(A) (m 1/2): 5153.564941 Right Ascen at Week(rad): 1.308380751 Argument of Perigee(rad): -0.9947120145 Mean Anom(rad): 1.851403958 Af0(s): -3.542269287e-05 Af1(s/s): 3.637979e-12 week: 358 ******** Week 358 almanac for PRN-23 ******** ID: 23 Health: 0 Eccentricity: 0.006015777588 Time of Applicability(s): 233472 Orbital Inclination(rad): 0.9874785606 Rate of Right Ascen(r/s): -7.943188008e-09 SQRT(A) (m 1/2): 5153.65332 Right Ascen at Week(rad): -1.943839033 Argument of Perigee(rad): -2.740828939 Mean Anom(rad): -1.906037792 Af0(s): 0.0004853662598 Af1(s/s): 3.637979e-12 week: 358 ******** Week 358 almanac for PRN-24 ******** ID: 24 Health: 0 Eccentricity: 0.01787090302 Time of Applicability(s): 233472 Orbital Inclination(rad): 0.9353951192 Rate of Right Ascen(r/s): -7.931758961e-09 SQRT(A) (m 1/2): 5153.605469 Right Ascen at Week(rad): 0.06216666869 Argument of Perigee(rad): 1.133735016 Mean Anom(rad): -0.5693873783 Af0(s): -9.270194092e-05 Af1(s/s): 1.455192e-11 week: 358 ******** Week 358 almanac for PRN-25 ******** ID: 25 Health: 0 Eccentricity: 0.01295042038 Time of Applicability(s): 233472 Orbital Inclination(rad): 0.9472595018 Rate of Right Ascen(r/s): -8.160339911e-09 SQRT(A) (m 1/2): 5153.668945 Right Ascen at Week(rad): 1.194308157 Argument of Perigee(rad): 1.156426771 Mean Anom(rad): -2.338395296 Af0(s): 0.0003497048828 Af1(s/s): -3.637979e-12 week: 358 ******** Week 358 almanac for PRN-26 ******** ID: 26 Health: 0 Eccentricity: 0.01099443436 Time of Applicability(s): 233472 Orbital Inclination(rad): 0.9280787499 Rate of Right Ascen(r/s): -8.354633718e-09 SQRT(A) (m 1/2): 5153.646484 Right Ascen at Week(rad): 1.119993229 Argument of Perigee(rad): 0.7086257209 Mean Anom(rad): 3.122265471 Af0(s): -0.0002592639648 Af1(s/s): -7.275958e-12 week: 358 ******** Week 358 almanac for PRN-27 ******** ID: 27 Health: 0 Eccentricity: 0.01432228088 Time of Applicability(s): 233472 Orbital Inclination(rad): 0.9526284346 Rate of Right Ascen(r/s): -8.137481816e-09 SQRT(A) (m 1/2): 5153.604492 Right Ascen at Week(rad): 2.250138969 Argument of Perigee(rad): 0.8766685226 Mean Anom(rad): 1.381925317 Af0(s): -3.542269287e-05 Af1(s/s): -1.091394e-11 week: 358 ******** Week 358 almanac for PRN-28 ******** ID: 28 Health: 0 Eccentricity: 0.0004005432129 Time of Applicability(s): 233472 Orbital Inclination(rad): 0.9623236725 Rate of Right Ascen(r/s): -7.634603726e-09 SQRT(A) (m 1/2): 5153.74707 Right Ascen at Week(rad): 0.1444997919 Argument of Perigee(rad): 0.1157473893 Mean Anom(rad): -1.321583247 Af0(s): -0.0004695390991 Af1(s/s): 7.275958e-12 week: 358 ******** Week 358 almanac for PRN-29 ******** ID: 29 Health: 0 Eccentricity: 0.003328323364 Time of Applicability(s): 233472 Orbital Inclination(rad): 0.9619341852 Rate of Right Ascen(r/s): -8.000333246e-09 SQRT(A) (m 1/2): 5153.708984 Right Ascen at Week(rad): 2.339407588 Argument of Perigee(rad): 2.741031547 Mean Anom(rad): 1.252135787 Af0(s): -0.000295440332 Af1(s/s): 7.275958e-12 week: 358 ******** Week 358 almanac for PRN-30 ******** ID: 30 Health: 0 Eccentricity: 0.008011817932 Time of Applicability(s): 233472 Orbital Inclination(rad): 0.9366354864 Rate of Right Ascen(r/s): -7.863184676e-09 SQRT(A) (m 1/2): 5153.72168 Right Ascen at Week(rad): 0.1615724438 Argument of Perigee(rad): -2.328650623 Mean Anom(rad): -1.700161167 Af0(s): 9.873133545e-05 Af1(s/s): 1.455192e-11 week: 358 ******** Week 358 almanac for PRN-31 ******** ID: 31 Health: 0 Eccentricity: 0.01081562042 Time of Applicability(s): 233472 Orbital Inclination(rad): 0.9551391297 Rate of Right Ascen(r/s): -7.703178011e-09 SQRT(A) (m 1/2): 5153.732422 Right Ascen at Week(rad): 0.1945331818 Argument of Perigee(rad): 0.9377936873 Mean Anom(rad): -2.646171913 Af0(s): -0.0001318930054 Af1(s/s): 3.637979e-12 week: 358 ******** Week 358 almanac for PRN-32 ******** ID: 32 Health: 0 Eccentricity: 0.009317398071 Time of Applicability(s): 233472 Orbital Inclination(rad): 0.9676566526 Rate of Right Ascen(r/s): -8.148910863e-09 SQRT(A) (m 1/2): 5153.674805 Right Ascen at Week(rad): -0.8853170134 Argument of Perigee(rad): -2.007201129 Mean Anom(rad): 1.969277798 Af0(s): -7.009171143e-05 Af1(s/s): 1.818989e-11 week: 358